{"data":{"norad_id":48391,"intl_designator":"2021-038AQ","name":"STARLINK-2607","alt_names":[],"object_type":"PAYLOAD","status":"ACTIVE","operator":null,"country":"US","launch_date":"2021-05-04","launch_site_code":"AFETR","launch_vehicle":null,"mission":null,"orbit_class":"UNKNOWN","rcs_meters":null,"size_class":null,"mass_kg":null,"dimensions":null,"purposes":["comms"],"wikipedia_slug":null,"has_3d_model":false,"image_url":null,"decayed_at":null,"tle_current":{"epoch":"2026-05-24T22:28:29.183232Z","epoch_age_seconds":91030,"freshness":"FRESH","line1":"1 48391U 21038AQ  26144.93644888  .00000207  00000+0  18421-4 0  9994","line2":"2 48391  53.1614 338.3861 0001120  86.6549 273.4581 15.31712058280330","mean_motion":15.31712058,"eccentricity":0.000112,"inclination_deg":53.1614,"raan_deg":338.3861,"arg_perigee_deg":86.6549,"mean_anomaly_deg":273.4581,"bstar":1.8421e-5,"rev_number":28033,"period_min":94.012447867013,"perigee_km":469.93698099316,"apogee_km":471.47112138863,"semimajor_km":6848.8410511909,"source":"CELESTRAK","updated_at":"2026-05-25T13:38:16.691110Z"}}}